(270684) = 2002 QY38

Discovered at Kitt Peak on 2002-08-30 by Spacewatch.

Orbit

Orbit type: Main Belt

Note: WebGL enabled browser required.

epoch2023-09-13.0
epoch JD2460200.5
perihelion date2022-03-15.09787
perihelion JD2459653.59787
argument of perihelion (°)221.16436
ascending node (°)23.54849
inclination (°)1.82629
eccentricity0.1943325
perihelion distance (AU)2.4232298
Tisserand w.r.t. Jupiter3.2
ΔV w.r.t. Earth (km/sec)9.8
semimajor axis (AU)3.0077296
mean anomaly (°)103.33686
mean daily motion (°/day)0.18894950
aphelion distance (AU)3.592
period (years)5.22
P-vector [x]-0.42728868
P-vector [y]-0.82094200
P-vector [z]-0.37878572
Q-vector [x]0.90402559
Q-vector [y]-0.38204202
Q-vector [z]-0.19178540
absolute magnitude16.54
phase slope0.15
uncertainty0
referenceMPO 778937
observations used153
oppositions11
arc length (days)7740
first opposition used2002
last opposition used2023
residual rms (arc-secs)0.83
perturbers coarse indicatorM-v
perturbers precise indicator003Ek
first observation date used2002-08-30.0
last observation date used2023-11-08.0
computer nameMPCLINUX
JD of orbit computation2456639.713290
perihelion JD uncertainty (days)1.7096E-04
argument of perihelion uncertainty (°)2.2533E-04
ascending node uncertainty (°)2.2298E-04
inclination uncertainty (°)1.2402E-05
eccentricity uncertainty 8.1286E-08
perihelion distance uncertainty (AU)2.5376E-07
Minimum Orbit Intersection Distances (in AU)
for orbit epoch: 2460200.5, reference: E2023-VC7
Mercury1.9586
Venus1.69852
Earth1.4096
Mars0.88173
Jupiter1.43365
Saturn5.49406
Uranus15.3868
Neptune26.3019

Observations

158 total observations over interval: 2002 08 30.42628 – 2023 11 08.314928
These data are available for download (format description).

